Probability
13 10 13 13 16 16 13 6 3 3 3 3 3 6 13 10 6 6 6 3 0 0 0 0 0 0 0 0 0 0 0 0 0 0 0 0 0 3
19 10 10 13 10 13 13 13 6 6 0 3 10 6 13 3 3 6 10 3 0 0 0 0 0 0 0 0 0 0 0 0 0 0 0 0 0 0
6 3 10 10 10 10 10 6 6 10 6 3 6 6 16 13 10 10 6 10 6 0 0 0 0 0 0 0 0 0 0 0 0 0 0 0 0 0
6 3 3 3 6 6 6 6 10 10 6 6 6 13 13 13 16 16 6 3 6 0 0 0 0 0 0 0 0 0 0 0 0 0 0 0 0 0
6 6 3 0 6 6 6 6 6 0 10 3 6 13 6 6 13 6 6 10 3 3 0 0 0 0 0 0 0 0 0 0 0 0 0 0 0 0
6 3 3 0 3 3 3 10 10 6 6 10 10 6 10 6 10 6 6 10 6 6 3 0 0 0 0 0 0 0 0 0 0 0 0 0 0 0
6 3 3 3 3 0 0 6 10 10 6 10 10 13 6 10 3 3 3 3 10 10 10 3 3 3 0 0 0 0 0 0 0 0 0 0 0 0
3 3 6 6 0 0 0 0 0 0 13 16 10 10 10 10 10 3 6 10 13 6 13 6 3 6 6 6 0 0 0 0 0 0 0 0 0 0
3 3 0 0 0 3 0 0 0 0 0 6 3 3 6 10 6 3 16 10 10 10 10 6 3 10 10 6 0 0 0 0 0 0 0 0 0 0
3 10 10 13 0 3 3 0 3 3 0 0 3 6 6 6 10 10 6 6 10 10 3 3 3 10 3 6 0 0 0 0 0 0 0 0 0 0
10 10 10 10 0 0 3 3 3 3 0 0 0 0 0 0 0 0 0 0 0 0 3 3 0 0 3 3 0 0 0 0 0 0 0 0 0 0
6 6 0 0 0 0 3 3 3 3 3 0 0 0 0 0 0 3 0 0 0 0 0 0 0 3 0 3 3 0 0 0 0 0 0 0 0 0
3 3 3 0 0 0 0 3 3 3 3 3 0 0 0 0 3 0 0 0 0 0 0 0 3 3 3 3 3 3 3 3 0 0 0 0 0 0
3 3 3 0 0 0 0 0 0 0 3 3 3 3 0 0 0 0 0 0 0 0 0 0 0 0 0 0 0 6 3 0 3 0 0 0 0 0
10 0 0 0 0 0 0 0 0 0 3 3 3 3 0 3 3 0 0 0 0 0 0 0 0 0 0 0 0 0 0 3 10 3 6 0 0 0
0 0 0 0 0 0 0 0 0 3 0 3 0 3 3 3 3 0 0 3 0 0 0 0 0 0 0 0 0 0 0 0 3 3 10 6 0 0
0 0 0 0 0 0 3 3 0 0 0 3 3 3 3 3 3 3 3 0 0 0 0 3 3 3 3 0 0 0 0 0 6 6 6 3 3 0
0 0 0 0 0 0 0 3 3 3 3 3 6 6 6 6 3 3 0 0 0 0 0 0 0 0 0 0 0 0 0 0 0 3 3 0 0 0
0 0 0 0 0 0 0 0 0 0 3 3 3 3 3 3 3 3 0 0 0 0 3 3 0 0 0 0 0 0 0 0 0 0 0 0 0 0
0 0 0 0 0 0 0 0 0 3 3 3 3 3 3 3 3 0 0 0 0 0 0 0 0 0 0 0 0 0 0 0 0 0 0 0 0 0
0 0 0 0 0 0 0 0 0 0 0 0 0 3 3 3 0 0 0 0 0 0 0 0 0 0 0 0 0 0 0 0 0 3 0 0 0 0
0 0 0 0 0 0 0 0 0 0 0 0 0 0 0 0 0 0 0 0 0 0 0 0 0 0 0 0 0 0 3 0 0 0 0 0 0 0
3 0 3 3 0 0 0 0 0 3 0 0 0 0 0 0 0 0 0 0 0 0 0 0 0 0 0 0 0 0 0 0 3 0 0 0 0 0
Height
5809 5808 5808 5807 5806 5805 5804 5804 5804 5804 5803 5802 5802 5802 5802 5802 5803 5803 5803 5804 5804 5805 5805 5806 5806 5806 5807 5808 5808 5809 5810 5810 5811 5811 5812 5812 5813 5813
5804 5803 5803 5802 5801 5800 5800 5799 5798 5798 5798 5797 5797 5796 5796 5796 5797 5797 5797 5797 5797 5797 5798 5798 5798 5799 5800 5800 5801 5802 5802 5803 5803 5804 5804 5804 5805 5805
5799 5798 5797 5797 5796 5796 5795 5794 5793 5792 5792 5792 5791 5791 5791 5791 5791 5790 5790 5790 5790 5790 5790 5791 5791 5791 5792 5792 5793 5794 5795 5795 5795 5796 5796 5796 5797 5797
5793 5793 5792 5791 5791 5790 5790 5789 5788 5787 5787 5786 5786 5785 5785 5785 5784 5784 5783 5783 5783 5783 5783 5783 5783 5784 5784 5784 5785 5786 5787 5787 5787 5788 5788 5788 5788 5788
5788 5787 5787 5786 5786 5785 5784 5784 5783 5782 5781 5781 5780 5779 5779 5778 5778 5778 5777 5776 5776 5776 5776 5776 5776 5776 5776 5777 5777 5778 5778 5779 5779 5779 5779 5780 5780 5781
5782 5781 5781 5781 5780 5779 5779 5778 5777 5776 5776 5775 5774 5773 5773 5772 5772 5771 5770 5770 5769 5769 5769 5768 5768 5768 5768 5769 5769 5770 5770 5770 5770 5771 5771 5771 5772 5772
5775 5775 5775 5775 5774 5774 5773 5772 5772 5771 5770 5769 5768 5767 5767 5766 5765 5764 5763 5763 5762 5761 5761 5761 5761 5761 5760 5760 5761 5761 5761 5762 5762 5762 5762 5763 5763 5764
5769 5769 5768 5768 5768 5767 5767 5767 5766 5765 5764 5763 5762 5761 5760 5759 5758 5757 5756 5756 5755 5755 5754 5753 5753 5752 5752 5752 5752 5752 5752 5753 5753 5754 5754 5754 5755 5756
5763 5763 5762 5762 5761 5761 5761 5760 5760 5759 5758 5757 5756 5755 5754 5752 5751 5750 5749 5748 5748 5747 5746 5745 5745 5744 5743 5743 5743 5743 5744 5744 5744 5745 5745 5746 5746 5747
5758 5757 5756 5756 5755 5755 5754 5754 5753 5752 5751 5750 5749 5748 5746 5745 5744 5743 5742 5741 5740 5739 5738 5737 5736 5736 5735 5734 5734 5735 5735 5735 5735 5736 5736 5737 5738 5738
5752 5751 5750 5750 5749 5748 5748 5747 5746 5746 5745 5743 5742 5741 5739 5738 5737 5736 5734 5733 5732 5731 5730 5729 5728 5727 5727 5726 5726 5726 5726 5726 5726 5727 5727 5728 5728 5729
5746 5745 5744 5744 5743 5742 5741 5740 5740 5739 5738 5737 5735 5734 5732 5731 5729 5728 5727 5725 5724 5723 5722 5721 5720 5719 5719 5718 5717 5717 5717 5717 5717 5717 5718 5718 5719 5719
5740 5739 5738 5737 5736 5735 5734 5734 5733 5732 5731 5729 5728 5726 5725 5724 5722 5721 5719 5718 5717 5716 5715 5714 5712 5711 5710 5710 5709 5708 5708 5708 5708 5708 5709 5709 5710 5710
5734 5733 5732 5731 5730 5729 5728 5727 5726 5725 5724 5722 5721 5719 5718 5716 5715 5714 5712 5711 5709 5708 5707 5706 5705 5703 5702 5701 5701 5700 5699 5699 5699 5699 5700 5700 5700 5701
5727 5726 5725 5724 5723 5722 5721 5720 5719 5718 5716 5715 5714 5712 5711 5709 5708 5706 5705 5703 5702 5701 5699 5698 5697 5695 5694 5693 5693 5692 5691 5691 5691 5691 5691 5691 5691 5692
5720 5718 5717 5716 5715 5714 5713 5712 5711 5710 5709 5708 5707 5705 5704 5702 5701 5699 5698 5697 5695 5694 5692 5691 5689 5688 5687 5686 5685 5684 5683 5683 5683 5682 5682 5682 5682 5682
5712 5711 5710 5709 5708 5707 5706 5705 5704 5702 5702 5701 5699 5698 5696 5695 5694 5692 5691 5690 5688 5687 5685 5684 5682 5680 5679 5678 5677 5676 5675 5675 5674 5674 5674 5674 5674 5674
5704 5703 5702 5701 5700 5699 5698 5697 5696 5695 5694 5693 5692 5691 5689 5688 5687 5685 5683 5682 5680 5679 5677 5676 5674 5673 5672 5671 5670 5669 5667 5667 5666 5665 5665 5665 5665 5665
5695 5695 5694 5693 5692 5691 5690 5689 5688 5687 5686 5685 5684 5683 5681 5680 5679 5677 5676 5674 5673 5671 5669 5668 5666 5665 5665 5664 5663 5661 5660 5659 5658 5657 5656 5656 5656 5655
5688 5687 5686 5685 5684 5683 5682 5681 5680 5679 5678 5677 5675 5674 5673 5672 5671 5669 5668 5666 5665 5664 5662 5661 5659 5658 5656 5656 5655 5654 5652 5651 5650 5648 5647 5647 5646 5646
5681 5680 5679 5678 5677 5675 5674 5673 5672 5671 5669 5668 5667 5666 5665 5664 5663 5661 5660 5658 5657 5656 5655 5654 5652 5650 5648 5647 5646 5645 5643 5642 5641 5640 5638 5637 5637 5636
5674 5673 5671 5670 5669 5668 5666 5665 5663 5662 5660 5659 5658 5657 5656 5655 5654 5653 5651 5650 5649 5648 5647 5646 5644 5642 5640 5639 5637 5636 5634 5633 5631 5630 5629 5628 5627 5626
5667 5666 5664 5663 5661 5660 5658 5657 5655 5654 5652 5651 5650 5649 5647 5647 5645 5644 5643 5642 5640 5639 5638 5637 5636 5634 5632 5630 5628 5627 5625 5624 5622 5621 5620 5618 5617 5616
Wind_Speed
18 18 18 18 18 18 18 19 19 20 20 21 22 22 22 22 23 23 23 24 24 24 25 26 26 25 25 25 25 26 27 27 28 27 27 28 28 28
19 19 19 19 19 19 19 18 19 20 21 21 21 20 21 22 22 23 24 24 25 26 26 25 25 25 26 27 27 27 28 28 29 29 28 28 28 29
19 19 19 18 18 18 19 19 20 20 20 21 21 20 20 21 22 22 23 24 25 24 25 25 25 25 26 27 27 27 28 29 29 29 30 29 29 29
18 18 18 18 19 19 19 20 20 19 19 20 20 20 20 21 22 22 22 23 24 24 25 25 26 26 26 26 26 27 27 28 29 29 29 29 29 29
20 19 19 19 19 19 19 19 19 19 20 20 20 20 21 21 21 22 22 23 23 24 24 24 25 25 26 26 26 26 27 28 29 30 29 29 29 29
20 20 20 19 19 19 20 20 20 20 20 20 21 21 22 22 22 22 23 23 23 24 24 24 25 26 26 27 27 27 27 28 28 29 29 30 30 30
20 20 20 20 20 20 20 20 21 21 21 22 22 22 23 23 23 23 24 24 24 24 25 25 26 26 27 28 28 29 29 28 28 29 30 30 31 31
20 20 20 20 20 20 20 21 21 21 22 23 23 24 24 24 25 25 24 24 24 25 26 26 27 27 27 27 28 28 29 29 29 29 29 29 30 30
19 20 20 20 21 21 21 22 22 22 23 24 24 25 25 25 25 25 25 25 25 25 26 26 27 28 27 27 28 28 29 29 30 30 30 29 29 30
20 20 20 20 21 22 22 22 22 22 23 24 24 24 24 24 25 25 26 26 26 26 27 27 28 28 29 28 28 29 29 29 30 31 30 31 31 31
20 20 21 21 22 22 22 22 22 22 23 24 24 24 24 25 25 26 26 26 26 26 27 27 28 28 29 28 28 28 29 29 29 30 30 31 31 32
21 21 21 21 22 23 23 23 23 23 24 24 25 25 25 25 26 26 26 26 25 25 26 27 28 28 28 27 28 28 29 29 29 30 30 30 31 32
22 22 22 22 21 22 23 23 24 24 24 25 25 25 25 25 26 26 25 25 25 25 26 26 27 28 28 27 28 29 29 29 29 30 31 31 30 31
23 23 23 22 22 22 23 24 24 24 24 25 25 26 25 25 25 25 25 24 25 25 26 26 27 27 27 26 27 28 28 28 29 29 30 30 30 30
24 24 24 24 24 24 24 25 25 25 25 25 25 25 25 25 25 24 25 25 25 24 25 25 26 27 27 26 27 27 27 28 28 29 29 29 29 30
25 25 25 25 24 24 24 24 25 25 25 25 25 25 25 24 24 24 24 24 25 25 25 26 26 26 25 26 26 27 27 27 28 28 28 28 29 29
26 26 26 26 25 24 24 24 24 25 25 25 25 25 24 24 23 24 24 24 25 25 25 26 26 26 25 26 26 26 27 27 27 27 28 29 29 29
26 26 26 25 25 24 24 24 25 26 26 27 26 26 26 25 25 25 25 25 24 25 25 26 25 25 25 25 25 25 26 26 27 27 28 28 28 29
25 26 26 26 25 25 25 26 26 26 26 26 26 26 26 26 25 25 25 25 24 24 24 24 24 24 25 25 25 25 26 27 27 28 28 29 28 29
25 26 26 25 25 26 26 26 26 26 26 26 26 26 26 26 26 26 26 26 25 25 24 23 24 25 25 25 26 27 27 27 28 29 29 29 29 29
23 24 25 25 25 25 26 27 26 27 27 26 26 27 27 27 27 27 26 26 26 25 24 24 25 26 26 26 26 26 27 28 28 28 28 29 29 30
23 24 24 24 25 25 25 26 26 27 27 27 27 27 27 27 27 26 26 26 26 25 25 25 25 26 26 26 26 26 27 28 29 29 29 29 30 30
24 24 25 25 25 25 25 25 25 26 26 27 27 27 26 26 25 25 25 25 25 25 25 25 26 26 26 26 26 26 27 27 27 28 28 28 29 29
Wind_Direction
269 271 272 272 269 271 272 272 271 270 270 268 267 266 264 266 267 268 268 268 267 264 262 263 264 263 263 263 263 263 262 262 262 263 262 260 259 258
269 270 271 272 271 272 272 271 272 273 270 269 269 269 269 270 270 269 269 269 268 267 266 265 263 262 262 262 262 262 262 263 262 262 263 262 261 259
270 271 272 270 271 272 272 273 276 276 273 271 271 272 272 273 272 272 272 272 272 271 268 266 265 262 262 261 261 262 262 264 264 262 262 263 262 260
271 271 271 273 273 273 273 274 277 277 276 275 274 274 275 276 276 275 274 274 273 271 269 267 266 264 263 262 262 262 263 264 264 264 263 263 261 259
273 272 272 273 274 274 274 275 276 275 276 276 275 276 278 280 279 277 276 276 273 271 270 269 268 268 266 265 265 264 264 264 265 266 265 261 261 261
274 272 271 273 274 275 274 275 275 275 275 275 276 277 278 279 279 277 276 275 274 274 273 271 272 271 269 268 267 266 265 265 265 266 265 262 261 262
272 271 271 273 274 274 275 275 276 276 275 275 277 277 279 278 278 277 278 276 275 275 274 273 273 273 272 270 268 267 265 266 266 267 265 264 262 261
271 271 273 274 276 275 275 275 276 276 276 277 276 276 278 278 277 277 279 278 276 274 274 273 274 274 273 271 269 267 267 267 268 267 265 265 263 262
273 272 273 274 275 276 277 276 276 277 277 279 278 278 278 278 278 279 278 278 277 276 275 274 274 274 273 271 269 267 266 266 267 266 266 265 264 263
276 276 275 275 274 275 276 277 277 278 280 281 281 279 278 278 279 279 278 278 278 277 276 276 275 276 275 272 270 269 267 267 268 267 266 265 264 265
275 276 277 276 275 275 277 279 279 279 281 284 284 282 280 278 278 279 280 280 278 277 277 278 278 278 278 274 273 271 268 268 268 268 266 265 265 266
274 276 277 277 277 276 277 279 280 280 280 282 284 282 281 280 279 280 282 281 281 279 280 281 280 278 278 276 274 273 271 270 268 268 268 267 267 267
276 276 275 276 277 277 278 279 280 279 281 282 282 282 280 280 280 281 281 281 280 281 281 282 282 279 279 277 276 276 275 272 270 269 269 268 267 267
279 279 276 275 276 278 280 280 280 281 283 283 282 282 282 283 282 282 282 283 283 281 282 283 282 280 280 279 279 277 275 273 272 272 269 269 267 266
279 279 277 275 276 279 280 281 281 282 283 283 284 284 284 284 284 284 282 280 281 282 284 284 282 282 280 279 278 278 276 273 271 271 270 269 267 267
279 279 279 278 278 279 279 281 281 281 282 282 284 284 284 283 283 284 284 281 282 282 283 283 282 282 280 279 279 279 278 275 272 270 270 268 267 268
279 279 279 279 280 278 279 280 281 281 281 281 282 284 284 283 284 285 285 284 284 283 282 282 282 281 280 280 280 279 278 275 274 272 271 269 268 269
278 277 277 277 278 278 278 279 279 280 280 280 281 282 282 282 283 284 284 286 287 286 283 282 281 281 281 281 281 280 279 278 276 275 272 270 270 270
276 275 275 276 276 278 278 279 279 279 280 281 281 280 280 280 282 282 282 285 286 286 286 285 283 283 281 282 283 283 282 280 279 278 276 274 271 270
277 277 278 277 276 278 279 280 279 279 281 282 281 279 279 279 281 281 282 284 285 287 286 285 285 285 284 282 283 283 282 282 281 280 278 277 274 272
279 280 280 280 279 279 280 281 281 281 281 281 280 279 278 279 281 282 282 283 285 285 285 285 286 287 285 284 284 283 283 282 281 280 278 276 275 274
280 280 281 281 281 281 282 281 281 281 280 280 280 279 279 279 281 282 282 282 283 283 284 286 288 289 287 286 286 284 283 283 281 280 278 277 277 276
281 282 283 283 282 283 284 285 283 283 282 282 282 280 278 279 280 281 281 281 281 283 285 286 288 290 289 287 287 287 285 284 284 282 280 280 279 277